Sign in

Goboko Update

Goboko is set to continue

The Goboko booking system is to continue under a new operator, a member of one of our longest-subscribed flying clubs

The new and previous operators of the site are working to ensure there will be no interruption to your booking service as the transition takes place. Of course, aircraft booking will continue to be free

Thank you for your continued commitment to Goboko

Info

Aviation weather

METAR KDAB 162053Z 13007KT 080V160 10SM FEW034 31/24 A3006 RMK AO2 SLP178 T03060239 55004

TAF KDAB 161728Z 1618/1718 11008KT P6SM SCT035 FM170000 VRB02KT P6SM FEW020 FM171500 15006KT P6SM FEW035

Aviation weather from ADDS. Re-check weather before flight.

-